Nature

Rosh Pina Airport Is an airport located between Mahanayim and Rosh Pina, Domestic flights are made from it, mainly to Tel Aviv.
The field includes a north-south landing runway (15/33 direction) and a separate landing pad for helicopters away from it. The second runway to the east and west (5/23 direction), and the peripheral taxiways are out of use.

AT EILAT AIRPORT YOU CAN FIND Only one actove RUNWAY (15/33).

Scenery:

Sim Download Size Author
P3D & FSX LLIB Rosh Pina 5.5MB Freeware ISP
P3D & FSX ICVFR Rosh Pina 32.9MB Freeware Chris Bell

Charts:

File Name
General Aerodrome Chart
Ground Parkings Chart
CVFR Lanes of entry / exit on low transport routes and helicopter routes
CVFR Traffic Pattrens Chart
Departure DESHE1B / DESHE1A Departure RWY 15 and 33
Arrival VOR RWY 15 and 33 (CLOUD BREAK)

METAR & TAF:

Available data for LLIB from the past hour
BEN YA AKOV
Metar
LLIB 210950Z 32008KT 270V350 9999 FEW035 33/18 Q1008

09:50 UTC

Wind: 320° 8kt

Visibility: 9999 m

Sky: FEW 3500 ft

Temp: 33 deg C / 91.4 deg F

Dewpoint: 18 deg C / 64.4 deg F

Pressure: 1008 hPa

TAF
TAF LLIB 210504Z 2106/2206 VRB03KT 8000 SCT018 FM210700 14005KT 9999 SCT030 BECMG 2109/2111 32015KT FEW040 BECMG 2116/2119 VRB04KT 7000 SCT015 TX33/2111Z TN20/2203Z